�N����,����,�~����,�C��,���x,�C��,����,���ϕ���,�ő�u�ԕ���,�ő厞����,���˗�,�I�_���x,�n�����x,�ő啗���N��,DTYPE
"20/02/19","00:10",0.0,4.1,86.6,1019.7,296.6,2.8,5.0,316.4,0.00,2.1,7.1,"00:01:20",1
"20/02/19","00:20",0.0,4.0,86.7,1019.4,293.3,2.5,3.9,310.1,0.00,2.0,7.1,"00:14:56",1
"20/02/19","00:30",0.0,4.0,86.9,1019.7,301.6,2.6,3.9,320.2,0.00,2.1,7.0,"00:20:24",1
"20/02/19","00:40",0.0,4.0,86.9,1019.9,304.8,2.7,4.8,333.4,0.00,2.1,7.1,"00:38:24",1
"20/02/19","00:50",0.0,4.1,86.9,1019.9,314.2,2.8,5.1,329.5,0.00,2.2,7.0,"00:47:44",1
"20/02/19","01:00",0.0,4.0,86.9,1019.9,319.9,2.7,4.2,332.2,0.00,2.1,7.1,"00:59:12",1
"20/02/19","01:10",0.0,4.0,87.0,1019.9,309.2,2.5,3.4,317.9,0.00,2.1,6.9,"01:03:52",1
"20/02/19","01:20",0.0,4.1,87.0,1020.1,277.7,2.1,3.1,330.1,0.00,2.2,7.2,"01:10:40",1
"20/02/19","01:30",0.0,4.2,86.8,1020.4,295.4,2.5,3.6,308.6,0.00,2.2,7.0,"01:20:40",1
"20/02/19","01:40",0.0,4.2,86.7,1020.1,322.9,2.2,3.5,305.7,0.00,2.2,6.9,"01:35:52",1
"20/02/19","01:50",0.0,4.1,86.7,1020.1,326.5,2.6,4.3,342.4,0.00,2.1,7.1,"01:40:24",1
"20/02/19","02:00",0.0,4.2,86.5,1020.4,316.2,3.0,5.0,335.9,0.00,2.2,6.8,"01:52:24",1
"20/02/19","02:10",0.0,4.2,86.5,1020.1,302.6,2.2,4.5,336.7,0.00,2.2,7.0,"02:08:40",1
"20/02/19","02:20",0.0,4.3,86.3,1020.4,310.3,2.6,4.9,319.1,0.00,2.3,6.7,"02:10:32",1
"20/02/19","02:30",0.0,4.2,86.2,1020.1,328.4,2.0,3.7,334.4,0.00,2.1,7.0,"02:29:04",1
"20/02/19","02:40",0.0,4.1,86.1,1019.4,338.3,2.1,3.7,333.7,0.00,2.0,7.1,"02:38:40",1
"20/02/19","02:50",0.0,4.1,86.2,1020.1,317.6,2.6,4.3,309.2,0.00,2.0,7.1,"02:45:52",1
"20/02/19","03:00",0.0,4.0,86.3,1020.1,325.4,2.3,3.9,315.0,0.00,2.0,6.8,"02:51:44",1
"20/02/19","03:10",0.0,4.0,86.5,1020.1,329.6,2.5,4.3,340.1,0.00,2.0,6.9,"03:04:56",1
"20/02/19","03:20",0.0,4.0,86.6,1020.4,324.3,2.8,4.8,345.2,0.00,2.0,7.0,"03:14:00",1
"20/02/19","03:30",0.0,3.9,86.7,1019.9,324.0,1.7,3.6,337.1,0.00,1.9,7.0,"03:23:52",1
"20/02/19","03:40",0.0,3.8,86.9,1020.1,344.2,1.8,3.3,333.2,0.00,1.9,7.1,"03:32:16",1
"20/02/19","03:50",0.0,3.7,87.1,1020.1,341.0,1.6,2.7,343.8,0.00,1.8,6.9,"03:45:12",1
"20/02/19","04:00",0.0,3.6,87.3,1020.1,330.5,1.0,2.2,325.1,0.00,1.7,7.1,"03:57:20",1
"20/02/19","04:10",0.0,3.6,87.4,1020.1,330.2,1.2,2.5,321.8,0.00,1.7,6.8,"04:02:48",1
"20/02/19","04:20",0.0,3.5,87.6,1020.6,338.8,0.8,1.7,341.9,0.00,1.7,7.0,"04:13:20",1
"20/02/19","04:30",0.0,3.5,87.9,1020.4,354.6,0.6,1.3,36.2,0.00,1.7,6.8,"04:29:20",1
"20/02/19","04:40",0.0,3.7,88.1,1020.1,335.9,0.5,1.2,325.3,0.00,2.0,6.8,"04:35:44",1
"20/02/19","04:50",0.0,3.7,88.2,1020.4,329.3,1.3,2.5,324.3,0.00,2.0,6.7,"04:43:20",1
"20/02/19","05:00",0.0,3.8,88.3,1020.6,312.0,0.7,1.8,320.1,0.00,2.1,6.8,"04:50:02",1
"20/02/19","05:10",0.0,3.7,88.4,1020.1,319.2,1.2,1.8,316.0,0.00,2.0,6.7,"05:00:24",1
"20/02/19","05:20",0.0,3.8,88.5,1020.6,340.2,1.0,1.8,348.6,0.00,2.1,6.9,"05:13:12",1
"20/02/19","05:30",0.0,3.7,88.5,1020.1,332.4,1.0,2.0,328.3,0.00,2.0,6.9,"05:22:56",1
"20/02/19","05:40",0.0,3.7,88.6,1020.6,335.9,1.0,1.9,326.5,0.00,2.0,6.9,"05:38:56",1
"20/02/19","05:50",0.0,3.6,88.6,1020.6,320.0,1.2,2.0,334.0,0.00,1.9,6.8,"05:40:32",1
"20/02/19","06:00",0.0,3.5,88.8,1020.8,331.1,1.7,3.1,321.6,0.00,1.9,6.8,"05:59:28",1
"20/02/19","06:10",0.0,3.5,88.9,1020.4,335.2,1.6,3.5,325.2,0.00,1.9,6.8,"06:00:32",1
"20/02/19","06:20",0.0,3.4,89.0,1020.6,329.6,1.7,2.6,334.7,0.00,1.8,6.8,"06:11:52",1
"20/02/19","06:30",0.0,3.3,89.1,1020.1,324.4,1.7,2.7,342.2,0.00,1.7,6.9,"06:26:48",1
"20/02/19","06:40",0.0,3.2,89.2,1020.4,324.5,1.6,2.2,329.2,0.00,1.6,6.9,"06:30:48",1
"20/02/19","06:50",0.0,3.0,89.3,1020.1,321.8,1.5,1.9,324.0,0.00,1.5,6.7,"06:45:20",1
"20/02/19","07:00",0.0,2.9,89.5,1020.8,341.0,1.3,2.1,349.7,0.00,1.4,6.8,"06:55:44",1
"20/02/19","07:10",0.0,3.0,89.8,1020.8,316.5,1.6,3.2,340.5,0.00,1.5,6.7,"07:00:08",1
"20/02/19","07:20",0.0,3.1,90.0,1021.3,314.2,1.2,1.7,266.5,0.00,1.7,6.7,"07:17:28",1
"20/02/19","07:30",0.0,3.0,90.0,1021.1,328.7,1.1,2.2,323.5,0.00,1.6,7.0,"07:27:32",1
"20/02/19","07:40",0.0,2.9,90.3,1021.1,312.8,1.8,2.6,332.2,0.00,1.5,6.6,"07:38:24",1
"20/02/19","07:50",0.0,3.0,90.6,1020.8,315.8,1.6,2.4,313.7,0.00,1.7,6.7,"07:44:00",1
"20/02/19","08:00",0.0,3.5,90.7,1021.3,287.7,1.3,2.7,317.7,0.01,2.2,6.6,"07:58:24",1
"20/02/19","08:10",0.0,3.7,90.7,1021.3,311.2,1.2,2.0,307.9,0.02,2.4,6.5,"08:00:08",1
"20/02/19","08:20",0.0,4.0,90.8,1021.5,249.5,0.5,0.9,291.3,0.03,2.7,6.8,"08:10:24",1
"20/02/19","08:30",0.0,4.4,90.7,1021.5,296.9,1.3,2.4,318.7,0.05,3.1,6.5,"08:26:16",1
"20/02/19","08:40",0.0,4.7,90.7,1022.3,298.0,1.3,2.1,327.6,0.05,3.4,6.6,"08:38:48",1
"20/02/19","08:50",0.0,5.0,90.4,1022.7,290.3,1.3,3.1,326.8,0.06,3.6,6.9,"08:49:04",1
"20/02/19","09:00",0.0,5.4,90.3,1022.5,320.2,1.3,3.2,331.1,0.10,4.0,7.0,"08:50:26",1
"20/02/19","09:10",0.0,5.9,89.5,1023.2,132.9,0.6,1.8,129.4,0.16,4.3,7.0,"09:08:48",1
"20/02/19","09:20",0.0,6.2,87.8,1023.7,87.7,1.1,2.4,109.5,0.22,4.4,7.1,"09:17:12",1
"20/02/19","09:30",0.0,6.7,84.9,1023.9,208.9,1.6,2.6,216.7,0.19,4.4,7.3,"09:26:56",1
"20/02/19","09:40",0.0,6.8,81.9,1023.7,204.0,1.1,2.2,212.6,0.15,4.0,7.4,"09:31:12",1
"20/02/19","09:50",0.0,7.1,79.6,1023.9,248.4,1.3,2.6,268.9,0.15,3.9,7.5,"09:46:08",1
"20/02/19","10:00",0.0,7.6,78.0,1023.7,277.6,1.2,2.2,312.4,0.17,4.1,7.6,"09:50:16",1
"20/02/19","10:10",0.0,7.7,75.9,1024.1,286.3,1.7,3.2,267.6,0.18,3.8,7.6,"10:08:24",1
"20/02/19","10:20",0.0,7.8,73.7,1023.9,282.1,2.2,4.1,325.0,0.18,3.4,7.8,"10:16:32",1
"20/02/19","10:30",0.0,8.1,72.0,1023.7,279.7,2.0,4.0,320.9,0.20,3.4,7.8,"10:24:48",1
"20/02/19","10:40",0.0,8.2,70.0,1023.7,275.5,2.0,4.2,327.5,0.21,3.1,7.7,"10:36:24",1
"20/02/19","10:50",0.0,8.2,68.5,1023.7,287.3,2.2,4.7,309.3,0.20,2.8,8.1,"10:40:16",1
"20/02/19","11:00",0.0,8.3,67.8,1023.7,279.9,2.2,4.1,313.6,0.22,2.7,8.1,"10:56:16",1
"20/02/19","11:10",0.0,8.6,65.0,1023.9,244.9,1.6,3.6,238.0,0.25,2.4,8.4,"11:01:12",1
"20/02/19","11:20",0.0,8.8,63.3,1023.7,270.7,1.7,3.6,235.3,0.22,2.3,8.4,"11:13:52",1
"20/02/19","11:30",0.0,9.2,62.6,1023.7,310.4,2.5,4.8,328.6,0.37,2.5,8.6,"11:25:20",1
"20/02/19","11:40",0.0,9.8,60.5,1023.7,266.0,2.5,4.2,325.9,0.47,2.6,8.8,"11:37:52",1
"20/02/19","11:50",0.0,9.8,59.8,1023.7,299.5,2.2,4.1,321.4,0.37,2.4,8.9,"11:46:00",1
"20/02/19","12:00",0.0,10.9,57.0,1023.4,274.0,1.6,3.4,296.7,0.56,2.8,9.0,"11:59:20",1
"20/02/19","12:10",0.0,11.0,53.7,1022.7,295.4,2.2,5.4,329.2,0.57,2.0,9.3,"12:07:36",1
"20/02/19","12:20",0.0,10.7,53.9,1023.0,254.8,2.6,4.5,229.3,0.56,1.8,9.6,"12:14:00",1
"20/02/19","12:30",0.0,10.8,53.1,1022.5,241.0,2.3,5.4,256.9,0.57,1.7,9.8,"12:22:24",1
"20/02/19","12:40",0.0,10.9,54.0,1022.3,249.7,2.6,5.1,235.9,0.59,2.0,10.2,"12:33:28",1
"20/02/19","12:50",0.0,10.3,52.9,1022.5,257.9,2.3,4.2,219.2,0.25,1.2,10.2,"12:43:44",1
"20/02/19","13:00",0.0,10.6,53.4,1022.0,267.0,2.2,5.1,323.2,0.37,1.6,10.4,"12:50:40",1
"20/02/19","13:10",0.0,10.6,52.7,1022.0,290.9,2.1,4.4,321.9,0.22,1.4,10.7,"13:02:40",1
"20/02/19","13:20",0.0,10.3,52.8,1021.8,277.6,1.6,3.5,347.3,0.16,1.1,10.6,"13:13:12",1
"20/02/19","13:30",0.0,10.1,53.0,1021.8,337.1,1.8,4.3,332.1,0.13,1.0,10.9,"13:24:32",1
"20/02/19","13:40",0.0,10.3,53.5,1021.8,302.5,1.3,4.7,334.1,0.15,1.3,10.6,"13:36:32",1
"20/02/19","13:50",0.0,11.0,54.0,1021.3,276.7,1.6,2.9,307.5,0.34,2.1,10.7,"13:40:32",1
"20/02/19","14:00",0.0,11.5,52.7,1021.3,292.0,2.0,3.4,329.9,0.35,2.2,10.9,"13:59:44",1
"20/02/19","14:10",0.0,11.3,52.2,1021.1,17.2,2.2,5.1,341.3,0.40,1.9,10.7,"14:01:04",1
"20/02/19","14:20",0.0,11.6,51.9,1021.1,335.2,2.3,4.2,324.3,0.43,2.1,11.0,"14:12:16",1
"20/02/19","14:30",0.0,11.9,51.0,1021.3,299.8,1.7,2.9,338.4,0.37,2.1,11.0,"14:26:40",1
"20/02/19","14:40",0.0,11.6,51.9,1021.3,325.6,2.5,3.9,332.2,0.26,2.1,11.3,"14:33:52",1
"20/02/19","14:50",0.0,12.3,48.3,1021.3,288.0,2.1,4.4,329.5,0.44,1.7,11.2,"14:48:08",1
"20/02/19","15:00",0.0,12.4,48.0,1021.3,283.6,2.5,4.1,328.9,0.38,1.7,11.4,"14:54:08",1
"20/02/19","15:10",0.0,12.2,46.9,1021.1,260.2,1.8,4.0,312.1,0.39,1.2,11.4,"15:00:08",1
"20/02/19","15:20",0.0,12.6,47.1,1021.1,292.9,2.3,5.2,341.5,0.39,1.7,11.7,"15:14:32",1
"20/02/19","15:30",0.0,13.0,46.5,1021.1,342.3,1.5,4.3,337.6,0.32,1.9,11.7,"15:20:16",1
"20/02/19","15:40",0.0,12.4,48.2,1021.3,335.9,1.5,3.3,331.4,0.20,1.8,11.6,"15:31:36",1
"20/02/19","15:50",0.0,12.0,50.8,1021.3,331.3,2.2,3.7,338.2,0.16,2.2,11.7,"15:43:28",1
"20/02/19","16:00",0.0,11.9,51.5,1021.1,350.3,2.0,5.0,349.0,0.24,2.3,11.9,"15:53:04",1
"20/02/19","16:10",0.0,12.1,50.7,1021.3,344.3,1.5,2.8,345.6,0.21,2.2,11.8,"16:00:02",1
"20/02/19","16:20",0.0,12.2,50.6,1021.3,347.3,1.3,3.1,358.8,0.21,2.3,11.8,"16:19:44",1
"20/02/19","16:30",0.0,11.5,50.5,1021.8,8.1,1.6,3.9,352.5,0.11,1.6,11.9,"16:29:52",1
"20/02/19","16:40",0.0,11.1,53.5,1021.8,27.0,1.7,4.7,5.0,0.07,2.1,11.7,"16:30:48",1
"20/02/19","16:50",0.0,10.8,54.2,1021.5,112.6,1.3,2.8,110.6,0.06,2.0,11.6,"16:46:18",1
"20/02/19","17:00",0.0,10.8,54.2,1021.3,216.6,1.2,2.9,235.8,0.08,2.0,11.5,"16:58:02",1
"20/02/19","17:10",0.0,11.2,53.1,1021.8,188.9,1.5,2.9,202.8,0.12,2.0,11.6,"17:03:36",1
"20/02/19","17:20",0.0,11.4,51.9,1021.8,353.6,0.8,1.7,343.1,0.09,1.9,11.5,"17:16:32",1
"20/02/19","17:30",0.0,11.3,53.3,1021.3,357.5,1.2,2.9,352.8,0.07,2.2,11.3,"17:21:44",1
"20/02/19","17:40",0.0,10.9,54.3,1021.8,337.8,2.1,3.4,317.7,0.03,2.1,11.2,"17:31:28",1
"20/02/19","17:50",0.0,10.4,54.9,1021.8,336.5,1.8,2.7,342.9,0.01,1.8,11.1,"17:42:06",1
"20/02/19","18:00",0.0,10.0,57.3,1021.8,333.7,2.1,4.2,332.1,0.00,2.0,11.0,"17:56:08",1
"20/02/19","18:10",0.0,9.5,59.0,1022.0,335.8,1.8,3.1,338.6,0.00,1.9,11.1,"18:04:06",1
"20/02/19","18:20",0.0,9.1,61.3,1021.8,329.8,2.3,3.1,328.9,0.00,2.1,10.9,"18:17:12",1
"20/02/19","18:30",0.0,8.7,63.6,1022.3,326.6,3.0,4.0,336.3,0.00,2.2,10.7,"18:27:52",1
"20/02/19","18:40",0.0,8.3,64.9,1022.3,325.7,3.5,4.9,333.5,0.00,2.1,10.6,"18:39:52",1
"20/02/19","18:50",0.0,8.0,66.1,1022.5,324.9,2.8,5.2,340.6,0.00,2.1,10.5,"18:40:08",1
"20/02/19","19:00",0.0,7.7,67.3,1022.7,329.6,1.6,2.9,318.4,0.00,2.1,10.5,"18:51:52",1
"20/02/19","19:10",0.0,7.3,68.5,1022.5,304.5,2.7,4.3,307.3,0.00,1.9,10.4,"19:05:44",1
"20/02/19","19:20",0.0,7.1,69.6,1022.7,311.2,1.8,2.7,325.3,0.00,2.0,10.1,"19:18:32",1
"20/02/19","19:30",0.0,6.9,70.7,1023.0,318.2,2.8,4.0,323.9,0.00,2.0,10.0,"19:28:08",1
"20/02/19","19:40",0.0,6.5,71.5,1022.7,305.8,2.0,4.3,326.6,0.00,1.8,9.8,"19:30:08",1
"20/02/19","19:50",0.0,6.2,72.6,1022.7,295.4,2.0,3.1,321.5,0.00,1.7,9.8,"19:46:58",1
"20/02/19","20:00",0.0,5.8,73.3,1022.7,284.2,1.5,2.0,282.9,0.00,1.4,9.7,"19:57:08",1
"20/02/19","20:10",0.0,5.6,74.3,1022.7,306.2,2.3,3.3,325.4,0.00,1.4,9.5,"20:09:20",1
"20/02/19","20:20",0.0,5.5,75.1,1022.7,317.4,2.2,3.3,324.0,0.00,1.5,9.4,"20:11:18",1
"20/02/19","20:30",0.0,5.1,76.1,1023.0,289.7,1.6,2.0,308.2,0.00,1.3,9.4,"20:23:20",1
"20/02/19","20:40",0.0,5.0,77.1,1022.7,296.2,2.1,2.9,322.6,0.00,1.4,9.2,"20:36:48",1
"20/02/19","20:50",0.0,4.7,78.1,1023.0,296.7,2.1,2.5,301.0,0.00,1.3,9.1,"20:44:24",1
"20/02/19","21:00",0.0,4.5,79.2,1023.0,275.8,1.7,2.0,269.8,0.00,1.3,9.1,"20:55:44",1
"20/02/19","21:10",0.0,4.5,80.1,1023.0,296.7,2.3,3.9,320.8,0.00,1.4,9.0,"21:09:34",1
"20/02/19","21:20",0.0,4.4,81.1,1023.0,315.3,2.2,3.4,334.6,0.00,1.5,8.8,"21:19:36",1
"20/02/19","21:30",0.0,4.3,82.0,1023.2,297.0,2.1,3.1,329.8,0.00,1.5,8.8,"21:20:24",1
"20/02/19","21:40",0.0,4.1,82.8,1023.2,289.1,1.8,3.1,325.7,0.00,1.5,8.7,"21:37:20",1
"20/02/19","21:50",0.0,4.0,83.4,1023.4,291.6,2.0,3.4,311.1,0.00,1.5,8.7,"21:42:56",1
"20/02/19","22:00",0.0,4.0,83.8,1023.2,290.1,2.0,3.2,305.8,0.00,1.6,8.5,"21:52:08",1
"20/02/19","22:10",0.0,3.8,84.3,1023.2,288.4,1.7,2.5,302.3,0.00,1.4,8.4,"22:07:00",1
"20/02/19","22:20",0.0,3.7,84.7,1023.2,294.2,2.0,3.4,322.0,0.00,1.4,8.2,"22:14:00",1
"20/02/19","22:30",0.0,3.6,84.9,1023.0,291.3,1.7,2.7,316.2,0.00,1.3,8.2,"22:24:32",1
"20/02/19","22:40",0.0,3.5,85.3,1023.0,292.7,1.8,2.6,317.9,0.00,1.3,8.2,"22:32:48",1
"20/02/19","22:50",0.0,3.5,85.5,1023.2,295.3,1.7,2.4,308.3,0.00,1.3,8.1,"22:42:24",1
"20/02/19","23:00",0.0,3.3,85.8,1022.7,297.5,1.8,2.2,306.3,0.00,1.2,8.3,"22:53:28",1
"20/02/19","23:10",0.0,3.3,86.2,1022.7,297.4,1.8,2.7,305.6,0.00,1.3,7.9,"23:04:48",1
"20/02/19","23:20",0.0,3.5,86.5,1022.5,313.6,3.0,4.8,312.0,0.00,1.5,8.0,"23:11:36",1
"20/02/19","23:30",0.0,3.8,86.4,1022.7,317.8,3.5,4.3,326.0,0.00,1.8,7.9,"23:23:04",1
"20/02/19","23:40",0.0,3.6,86.4,1022.7,304.0,1.8,3.7,334.1,0.00,1.6,7.9,"23:36:56",1
"20/02/19","23:50",0.0,3.4,86.5,1023.0,289.0,1.5,2.4,306.0,0.00,1.4,7.7,"23:40:24",1
"20/02/19","24:00",0.0,3.3,86.7,1022.7,320.7,1.3,1.9,335.1,0.00,1.3,7.9,"23:58:48",1
